ニオワイズ彗星

463P/NEOWISE (2023)

English version
Home page
Updated on October 14, 2023

---------------------------------------------------------------------

・ プロフィール

・ 写真集

・ 軌道要素

Epoch 2023 Feb. 25.0 TT = JDT 2460000.5                                         
T 2023 Mar. 29.61969 TT                                 Rudenko                 
q   0.5189620            (2000.0)            P               Q                  
n   0.19204212     Peri.  216.36590     -0.68755435     -0.54827785             
a   2.9753522      Node   283.21203     +0.72613187     -0.52025825             
e   0.8255796      Incl.   29.27704     -0.00122987     -0.65476923             
P   5.13                                                                        
>From 67 observations 2012 Sept. 6-2023 Apr. 30, mean residual 0".3.             

・ 星図

・ 光度変化

        m1 = 16.0 + 5 logΔ + 10.0 log r

        ※ 灰色の曲線は、H = 17.6  G = 0.15 の光度曲線です。

---------------------------------------------------------------------

軌道要素はM.P.E.C. 2023-J12に掲載されたものです。
星図はステラナビゲータ Ver.11 (アストロアーツ) で作成したものです。
光度グラフはComet for Windowsで作成したものです。

---------------------------------------------------------------------

Copyright(C) Seiichi Yoshida (comet@aerith.net). All rights reserved.